Location: Les Jeannots
(43.2262°N, 5.5774°E)
Time: 02:59:49
(UTC+00:00)

Cosmos 1766 Rocket - Pass Details

Date: 05 July 2020
Orbit: 606 x 632 km, 82.5° (Epoch: 04 August)

Event Time Altitude Azimuth Distance (km) Brightness Sun altitude
Exits shadow 22:44:23 49° 93° (E) 795 3.9 -22.8°
Drops below altitude 10° 22:48:38 10° 19° (NNE) 1,994 6.9 -23.0°
Sets 22:50:55 0° 14° (NNE) 2,909 8.0 -23.0°
